When you browse on this site, cookies collect data to enhance your experience and personalize the content and advertising you see.
Visit our Privacy Policy to learn more. By continuing to use the site, you agree to this use of cookies and data.
  • In Lithuania
  • List of Countries
  • For 7 days
  • Water Temperature
  • Satellite Maps
  • Weather Map
  • Weather Widgets
  • user-avatar
    Login

    Hourly Weather Kaszowka

    Today, 16 July, Tuesday

    Time Temperature Precipitation Wind Pressure Humidity
    00:00 +14°C° 0 mm 2 mps 745 mmHg 90%
    01:00 +13°C° 0 mm 2 mps 745 mmHg 91%
    02:00 +13°C° 0 mm 2 mps 745 mmHg 91%
    03:00 +13°C° 0 mm 2 mps 745 mmHg 91%
    04:00 +13°C° 0 mm 2 mps 744 mmHg 91%
    05:00 +13°C° 0 mm 3 mps 744 mmHg 86%
    06:00 +14°C° 0 mm 4 mps 744 mmHg 81%
    07:00 +15°C° 0 mm 4 mps 744 mmHg 76%
    08:00 +15°C° 0 mm 5 mps 744 mmHg 74%
    09:00 +15°C° 0 mm 5 mps 744 mmHg 72%
    10:00 +15°C° 0 mm 5 mps 744 mmHg 70%
    11:00 +16°C° 0 mm 5 mps 744 mmHg 69%
    12:00 +16°C° 0 mm 5 mps 744 mmHg 67%
    13:00 +17°C° 0 mm 5 mps 744 mmHg 66%
    14:00 +17°C° 0 mm 5 mps 744 mmHg 66%
    15:00 +17°C° 0 mm 5 mps 744 mmHg 65%
    16:00 +19°C° 0 mm 5 mps 744 mmHg 65%
    17:00 +17°C° 0 mm 5 mps 744 mmHg 68%
    18:00 +18°C° 0 mm 4 mps 744 mmHg 71%
    19:00 +17°C° 0 mm 4 mps 744 mmHg 75%
    20:00 +15°C° 0 mm 4 mps 744 mmHg 78%
    21:00 +14°C° 0 mm 4 mps 744 mmHg 82%
    22:00 +13°C° 0 mm 4 mps 744 mmHg 85%
    23:00 +14°C° 0 mm 3 mps 744 mmHg 85%

    Tomorrow, 17 July, Wednesday

    Time Temperature Precipitation Wind Pressure Humidity
    00:00 +14°C° 0 mm 3 mps 745 mmHg 84%
    01:00 +14°C° 0 mm 3 mps 745 mmHg 84%
    02:00 +14°C° 0.1 mm 3 mps 744 mmHg 85%
    03:00 +14°C° 0.1 mm 3 mps 744 mmHg 85%
    04:00 +13°C° 0.1 mm 3 mps 744 mmHg 86%
    05:00 +14°C° 0 mm 4 mps 744 mmHg 83%
    06:00 +15°C° 0 mm 4 mps 744 mmHg 80%
    07:00 +16°C° 0 mm 5 mps 744 mmHg 77%
    08:00 +17°C° 0 mm 5 mps 744 mmHg 71%
    09:00 +19°C° 0 mm 5 mps 744 mmHg 66%
    10:00 +20°C° 0 mm 5 mps 744 mmHg 60%
    11:00 +21°C° 0 mm 5 mps 744 mmHg 58%
    12:00 +21°C° 0 mm 5 mps 744 mmHg 56%
    13:00 +22°C° 0 mm 5 mps 744 mmHg 54%
    14:00 +22°C° 0 mm 4 mps 743 mmHg 53%
    15:00 +22°C° 0 mm 4 mps 743 mmHg 53%
    16:00 +22°C° 0 mm 4 mps 743 mmHg 53%
    17:00 +21°C° 0 mm 3 mps 743 mmHg 58%
    18:00 +20°C° 0 mm 2 mps 743 mmHg 63%
    19:00 +20°C° 0 mm 1 mps 743 mmHg 68%
    20:00 +19°C° 0 mm 1 mps 743 mmHg 71%
    21:00 +18°C° 0 mm 1 mps 743 mmHg 74%
    22:00 +15°C° 0 mm 1 mps 743 mmHg 78%
    23:00 +15°C° 0 mm 1 mps 743 mmHg 80%

    Day after tomorrow, 18 July, Thursday

    Time Temperature Precipitation Wind Pressure Humidity
    00:00 +14°C° 0 mm 1 mps 743 mmHg 82%
    01:00 +14°C° 0 mm 1 mps 743 mmHg 85%
    02:00 +13°C° 0 mm 1 mps 743 mmHg 86%
    03:00 +13°C° 0 mm 1 mps 743 mmHg 88%
    04:00 +13°C° 0 mm 1 mps 743 mmHg 89%
    05:00 +14°C° 0 mm 1 mps 743 mmHg 83%
    06:00 +16°C° 0 mm 1 mps 743 mmHg 77%
    07:00 +18°C° 0 mm 1 mps 743 mmHg 71%
    08:00 +20°C° 0 mm 1 mps 743 mmHg 66%
    09:00 +21°C° 0 mm 1 mps 743 mmHg 62%
    10:00 +21°C° 0 mm 2 mps 743 mmHg 57%
    11:00 +23°C° 0 mm 2 mps 743 mmHg 53%
    12:00 +24°C° 0 mm 2 mps 743 mmHg 50%
    13:00 +25°C° 0 mm 2 mps 743 mmHg 46%
    14:00 +25°C° 0 mm 1 mps 743 mmHg 45%
    15:00 +25°C° 0 mm 1 mps 742 mmHg 44%
    16:00 +26°C° 0 mm 1 mps 742 mmHg 44%
    17:00 +24°C° 0 mm 1 mps 742 mmHg 49%
    18:00 +23°C° 0 mm 1 mps 742 mmHg 54%
    19:00 +22°C° 0 mm 1 mps 742 mmHg 59%
    20:00 +21°C° 0 mm 1 mps 743 mmHg 63%
    21:00 +19°C° 0 mm 1 mps 743 mmHg 67%
    22:00 +18°C° 0 mm 1 mps 743 mmHg 71%
    23:00 +16°C° 0 mm 2 mps 743 mmHg 72%

    19 July, Friday

    Time Temperature Precipitation Wind Pressure Humidity
    00:00 +16°C° 0 mm 2 mps 743 mmHg 74%
    01:00 +16°C° 0 mm 2 mps 743 mmHg 75%
    02:00 +16°C° 0 mm 2 mps 743 mmHg 76%
    03:00 +16°C° 0 mm 1 mps 743 mmHg 76%
    04:00 +15°C° 0 mm 1 mps 743 mmHg 77%
    05:00 +18°C° 0 mm 1 mps 743 mmHg 74%
    06:00 +18°C° 0 mm 2 mps 743 mmHg 71%
    07:00 +20°C° 0 mm 2 mps 743 mmHg 68%
    08:00 +22°C° 0 mm 1 mps 743 mmHg 64%
    09:00 +24°C° 0 mm 1 mps 743 mmHg 60%
    10:00 +25°C° 0 mm 1 mps 743 mmHg 56%
    11:00 +26°C° 0.1 mm 1 mps 743 mmHg 53%
    12:00 +27°C° 0.1 mm 1 mps 743 mmHg 50%
    13:00 +28°C° 0.1 mm 1 mps 743 mmHg 48%
    14:00 +27°C° 0.4 mm 1 mps 743 mmHg 50%
    15:00 +27°C° 0.4 mm 1 mps 743 mmHg 53%
    16:00 +26°C° 0.4 mm 1 mps 743 mmHg 56%
    17:00 +25°C° 0.1 mm 1 mps 743 mmHg 61%
    18:00 +24°C° 0.1 mm 1 mps 743 mmHg 67%
    19:00 +23°C° 0.1 mm 1 mps 743 mmHg 72%
    20:00 +21°C° 0.6 mm 1 mps 743 mmHg 77%
    21:00 +20°C° 0.6 mm 1 mps 744 mmHg 82%
    22:00 +18°C° 0.6 mm 1 mps 744 mmHg 87%
    23:00 +18°C° 0 mm 1 mps 744 mmHg 87%

    20 July, Saturday

    Time Temperature Precipitation Wind Pressure Humidity
    00:00 +18°C° 0 mm 1 mps 744 mmHg 87%
    01:00 +17°C° 0 mm 2 mps 744 mmHg 87%
    02:00 +17°C° 0 mm 2 mps 745 mmHg 88%
    03:00 +16°C° 0 mm 2 mps 745 mmHg 89%
    04:00 +16°C° 0 mm 2 mps 745 mmHg 90%
    05:00 +17°C° 0 mm 2 mps 745 mmHg 87%
    06:00 +18°C° 0 mm 3 mps 746 mmHg 84%
    07:00 +20°C° 0 mm 3 mps 746 mmHg 81%
    08:00 +21°C° 0.1 mm 3 mps 746 mmHg 75%
    09:00 +22°C° 0.1 mm 3 mps 746 mmHg 70%
    10:00 +25°C° 0.1 mm 3 mps 747 mmHg 64%
    11:00 +26°C° 0.1 mm 3 mps 746 mmHg 60%
    12:00 +26°C° 0.1 mm 3 mps 746 mmHg 57%
    13:00 +27°C° 0.1 mm 3 mps 746 mmHg 54%
    14:00 +27°C° 0.2 mm 3 mps 746 mmHg 55%
    15:00 +27°C° 0.2 mm 3 mps 746 mmHg 55%
    16:00 +27°C° 0.2 mm 3 mps 746 mmHg 56%
    17:00 +26°C° 0.3 mm 2 mps 746 mmHg 61%
    18:00 +25°C° 0.3 mm 2 mps 747 mmHg 67%
    19:00 +24°C° 0.3 mm 1 mps 747 mmHg 72%
    20:00 +22°C° 0 mm 1 mps 747 mmHg 75%
    21:00 +21°C° 0 mm 1 mps 747 mmHg 78%
    22:00 +20°C° 0 mm 1 mps 748 mmHg 81%
    23:00 +20°C° 0 mm 1 mps 748 mmHg 82%

    21 July, Sunday

    Time Temperature Precipitation Wind Pressure Humidity
    00:00 +19°C° 0 mm 1 mps 748 mmHg 83%
    01:00 +19°C° 0 mm 1 mps 748 mmHg 85%
    02:00 +18°C° 0 mm 1 mps 748 mmHg 85%
    03:00 +18°C° 0 mm 1 mps 748 mmHg 86%
    04:00 +18°C° 0 mm 1 mps 748 mmHg 87%
    05:00 +19°C° 0 mm 1 mps 748 mmHg 82%
    06:00 +21°C° 0 mm 1 mps 749 mmHg 76%
    07:00 +22°C° 0 mm 1 mps 749 mmHg 71%
    08:00 +24°C° 0 mm 1 mps 749 mmHg 66%
    09:00 +25°C° 0 mm 1 mps 749 mmHg 61%
    10:00 +27°C° 0 mm 1 mps 750 mmHg 56%
    11:00 +28°C° 0 mm 1 mps 750 mmHg 52%
    12:00 +29°C° 0 mm 1 mps 749 mmHg 48%
    13:00 +30°C° 0 mm 1 mps 749 mmHg 44%
    14:00 +30°C° 0 mm 1 mps 749 mmHg 43%
    15:00 +30°C° 0 mm 1 mps 749 mmHg 42%
    16:00 +30°C° 0 mm 1 mps 749 mmHg 41%
    17:00 +28°C° 0 mm 1 mps 749 mmHg 47%
    18:00 +27°C° 0 mm 1 mps 749 mmHg 52%
    19:00 +25°C° 0 mm 1 mps 749 mmHg 57%
    20:00 +24°C° 0 mm 1 mps 750 mmHg 62%
    21:00 +23°C° 0 mm 1 mps 750 mmHg 66%
    22:00 +21°C° 0 mm 1 mps 750 mmHg 70%
    23:00 +21°C° 0 mm 1 mps 750 mmHg 72%
    Show more